Wainwright, AK

4:49 PM AKST on January 19, 2017 (GMT -0900)
Wainwright

Weather History for PAWI - December, 2012

Change the Weather History Date:

Thursday, December 13, 2012

  Actual Average (PABR) Record (PABR)
Temperature  
Mean Temperature -21 °F -  
Max Temperature -18 °F -4 °F 29 °F (2008)
Min Temperature -24 °F -17 °F -45 °F (1924)
Degree Days  
Heating Degree Days 86    
Moisture  
Dew Point -28 °F    
Average Humidity 71    
Maximum Humidity 76    
Minimum Humidity 69    
Precipitation  
Precipitation 0.00 in - - ()
Sea Level Pressure  
Sea Level Pressure 29.52 in    
Wind  
Wind Speed 10 mph (SSW)    
Max Wind Speed 14 mph    
Max Gust Speed -    
Visibility 7 miles    
Events      
Averages and records for this station are not official NWS values.
T = Trace of Precipitation, MM = Missing Value Source: NWS Daily Summary

Daily Weather History Graph

Daily Weather History Graph

Search for Another Location

Airport or City:

Trip Planner

Search our weather history database for the weather conditions in past years. The results will help you decide how hot, cold, wet, or windy it might be!

Date:

Astronomy

Dec. 31, 1969 Rise Set
Actual Time Sun does not rise Sun does not rise
Civil Twilight 11:39 AM AKST 3:29 PM AKST
Nautical Twilight 9:44 AM AKST 5:24 PM AKST
Astronomical Twilight 8:21 AM AKST 6:46 PM AKST
Moon No Moon Rise No Moon Set
Length of Visible Light 3h 49m
Length of Day
0h 00m
New Moon, 0% of the Moon is Illuminated
Dec 13
New Moon
Dec 19
First Quarter
Dec 28
Full
Jan 4
Last Quarter
Jan 11
New

Hourly Weather History & Observations

Time (AKST) Temp. Windchill Dew Point Humidity Pressure Visibility Wind Dir Wind Speed Gust Speed Precip Events Conditions
12:07 AM -20.2 °F -38.8 °F -25.6 °F 76% 29.48 in 6.0 mi SW 8.1 mph - N/A   Haze
12:53 AM -20.0 °F -38.6 °F -27.0 °F 70% 29.49 in 3.0 mi SW 8.1 mph - 0.00 in   Overcast
1:53 AM -20.0 °F -42.2 °F -27.0 °F 70% 29.50 in 6.0 mi SW 11.5 mph - 0.00 in   Haze
2:25 AM -20.2 °F -42.4 °F -27.4 °F 69% 29.49 in 2.5 mi SW 11.5 mph - 0.00 in   Overcast
3:33 AM -20.2 °F -41.3 °F -27.4 °F 69% 29.49 in 6.0 mi SW 10.4 mph - N/A   Haze
3:53 AM -18.9 °F -39.8 °F -26.0 °F 70% 29.50 in 5.0 mi SW 10.4 mph - N/A   Haze
4:17 AM -18.4 °F -39.1 °F -25.6 °F 70% 29.49 in 3.0 mi SW 10.4 mph - 0.00 in   Overcast
4:25 AM -18.4 °F -37.9 °F -25.6 °F 70% 29.49 in 3.0 mi SW 9.2 mph - 0.00 in   Haze
4:53 AM -18.9 °F -38.6 °F -26.0 °F 70% 29.50 in 4.0 mi SSW 9.2 mph - 0.00 in   Haze
5:53 AM -20.9 °F -43.3 °F -27.0 °F 73% 29.50 in 10.0 mi SW 11.5 mph - N/A   Partly Cloudy
6:53 AM -22.0 °F -45.7 °F -27.9 °F 74% 29.50 in 10.0 mi SSW 12.7 mph - N/A   Clear
7:53 AM -22.0 °F -46.6 °F -29.0 °F 70% 29.50 in 6.0 mi SSW 13.8 mph - N/A   Haze
8:05 AM -22.0 °F -46.6 °F -27.4 °F 76% 29.50 in 4.0 mi SSW 13.8 mph - N/A   Haze
8:49 AM -20.2 °F -43.4 °F -27.4 °F 69% 29.50 in 5.0 mi SW 12.7 mph - N/A   Haze
8:53 AM -20.9 °F -44.3 °F -27.9 °F 70% 29.51 in 5.0 mi SW 12.7 mph - N/A   Haze
9:53 AM -23.1 °F -47.1 °F -29.0 °F 74% 29.51 in 7.0 mi SSW 12.7 mph - N/A   Partly Cloudy
10:53 AM -23.1 °F -46.0 °F -29.9 °F 70% 29.52 in 10.0 mi SSW 11.5 mph - N/A   Clear
11:53 AM -23.1 °F -43.7 °F -29.9 °F 70% 29.52 in 7.0 mi SSW 9.2 mph - N/A   Clear
12:53 PM -23.1 °F -47.1 °F -29.9 °F 70% 29.53 in 9.0 mi SSW 12.7 mph - N/A   Clear
1:53 PM -23.1 °F -46.0 °F -29.9 °F 70% 29.54 in 10.0 mi SSW 11.5 mph - N/A   Clear
3:53 PM -24.0 °F -44.8 °F -29.9 °F 74% 29.54 in 10.0 mi South 9.2 mph - N/A   Clear
4:53 PM -23.1 °F -40.7 °F -29.0 °F 74% 29.54 in 8.0 mi South 6.9 mph - N/A   Clear
5:53 PM -22.0 °F -43.6 °F -29.0 °F 70% 29.53 in 8.0 mi South 10.4 mph - N/A   Clear
6:53 PM -22.0 °F -41.0 °F -29.0 °F 70% 29.54 in 10.0 mi SSW 8.1 mph - N/A   Clear
7:53 PM -22.0 °F -41.0 °F -29.0 °F 70% 29.54 in 8.0 mi South 8.1 mph - N/A   Clear
8:53 PM -22.0 °F -43.6 °F -29.0 °F 70% 29.55 in 10.0 mi SSW 10.4 mph - N/A   Clear
9:53 PM -22.0 °F -44.7 °F -29.0 °F 70% 29.55 in 10.0 mi SSW 11.5 mph - N/A   Clear
10:53 PM -20.0 °F -39.9 °F -27.0 °F 70% 29.55 in 8.0 mi SSW 9.2 mph - N/A   Mostly Cloudy
11:33 PM -18.4 °F -36.6 °F -25.6 °F 70% 29.55 in 8.0 mi SSW 8.1 mph - N/A   Mostly Cloudy
11:53 PM -18.0 °F -37.5 °F -25.1 °F 70% 29.55 in 8.0 mi SSW 9.2 mph - N/A   Overcast